(674) Rachele
ephemeris date magn radius delta ra dec elong phase
Opposition29 May 202612.13.376 AU2.364 AU16h24m-25°10'176.4°1.1°
Today27 Jun 202612.73.403 AU2.499 AU16h00m-25°18'147.9°9.1°
(674) Rachele - 2026-06-27
astro.vanbuitenen.nl


 
-1 year
-1 month
-1 day
Now
+1 day
+1 month
+1 year

The interactive orbit chart above shows the body's path through the solar system and its position at the given date. Green and blue lines are shown perpendicular to the ecliptic plane: Green if the path is above the ecliptic plane, blue if it is below. (Left-click and drag to rotate the view; Right-click and drag to move the view; Use scroll wheel to zoom in our out.)

The orbital elements of Rachele are:

            e (Eccentricity)                : 0.1929391
            a (Semimajor axis)              : 2.9246911
            i (Inclination)                 : 13.51152
            Ω (Longitude of ascending node) : 58.07000
            ω (Argument of perihelion)      : 41.20062
            M (Mean anomaly)                : 138.52266
            Epoch                           : 2026 Jun 09

            L (Longitude of perihelion)     : 98.47519
            B (Latitude of perihelion)      : 8.85293
            P (Orbital period in years)     : 5.00            
        

The light curve chart below shows the estimated development of the minor planet's magnitude.


The all-sky chart below shows the path of the minor planet over the same period as the light curve. The current position is marked yellow.





The following chart shows the path of the minor planet in the next few days. The field of view is optimized for (~10x50) binoculars and finderscopes.




Ephemerides:
Date       Time       RA (2000)    DEC (2000)    delta   radius  elong  phase   PA    magn
2026-06-27 00:00 UT   16 00 48.4   -25 18 49     2.499    3.403  147.9    9.1    94   12.7 
2026-06-27 05:34 UT   16 00 39.6   -25 18 50     2.501    3.403  147.6    9.2    94   12.7 
2026-06-28 00:00 UT   16 00 10.9   -25 18 54     2.507    3.404  146.8    9.4    94   12.7 
2026-06-29 00:00 UT   15 59 34.6   -25 18 59     2.516    3.405  145.7    9.7    95   12.7 
2026-06-30 00:00 UT   15 58 59.5   -25 19 05     2.525    3.406  144.7    9.9    95   12.7 
2026-07-01 00:00 UT   15 58 25.7   -25 19 11     2.534    3.406  143.6   10.2    95   12.8 
2026-07-02 00:00 UT   15 57 53.0   -25 19 18     2.544    3.407  142.5   10.5    95   12.8 
2026-07-03 00:00 UT   15 57 21.6   -25 19 25     2.554    3.408  141.5   10.7    96   12.8 
2026-07-04 00:00 UT   15 56 51.5   -25 19 34     2.564    3.409  140.4   11.0    96   12.8 
2026-07-05 00:00 UT   15 56 22.6   -25 19 43     2.574    3.410  139.3   11.2    96   12.8 
2026-07-06 00:00 UT   15 55 55.0   -25 19 54     2.584    3.411  138.3   11.4    96   12.8 
2026-07-07 00:00 UT   15 55 28.7   -25 20 06     2.594    3.412  137.3   11.7    97   12.9 
2026-07-08 00:00 UT   15 55 03.7   -25 20 19     2.605    3.412  136.2   11.9    97   12.9 
2026-07-09 00:00 UT   15 54 40.0   -25 20 34     2.616    3.413  135.2   12.1    97   12.9 
2026-07-10 00:00 UT   15 54 17.6   -25 20 50     2.627    3.414  134.1   12.3    97   12.9 
2026-07-11 00:00 UT   15 53 56.5   -25 21 08     2.638    3.415  133.1   12.5    97   12.9 
2026-07-12 00:00 UT   15 53 36.8   -25 21 27     2.650    3.416  132.1   12.8    98   13.0 
2026-07-13 00:00 UT   15 53 18.5   -25 21 49     2.661    3.417  131.1   13.0    98   13.0 
2026-07-14 00:00 UT   15 53 01.4   -25 22 12     2.673    3.417  130.1   13.2    98   13.0 
2026-07-15 00:00 UT   15 52 45.8   -25 22 37     2.685    3.418  129.1   13.3    98   13.0 
2026-07-16 00:00 UT   15 52 31.5   -25 23 04     2.697    3.419  128.1   13.5    98   13.0 
2026-07-17 00:00 UT   15 52 18.5   -25 23 33     2.709    3.420  127.1   13.7    98   13.0 
2026-07-18 00:00 UT   15 52 06.9   -25 24 05     2.722    3.421  126.1   13.9    98   13.1 
2026-07-19 00:00 UT   15 51 56.7   -25 24 38     2.734    3.421  125.1   14.1    99   13.1 
2026-07-20 00:00 UT   15 51 47.8   -25 25 14     2.747    3.422  124.1   14.2    99   13.1 
2026-07-21 00:00 UT   15 51 40.3   -25 25 52     2.760    3.423  123.1   14.4    99   13.1 
2026-07-22 00:00 UT   15 51 34.1   -25 26 33     2.773    3.424  122.2   14.5    99   13.1 
2026-07-23 00:00 UT   15 51 29.2   -25 27 16     2.786    3.424  121.2   14.7    99   13.1 
2026-07-24 00:00 UT   15 51 25.7   -25 28 01     2.799    3.425  120.2   14.8    99   13.2 
2026-07-25 00:00 UT   15 51 23.5   -25 28 48     2.812    3.426  119.3   15.0    99   13.2 
2026-07-26 00:00 UT   15 51 22.6   -25 29 38     2.826    3.427  118.3   15.1    99   13.2 
2026-07-27 00:00 UT   15 51 23.0   -25 30 31     2.839    3.427  117.4   15.3   100   13.2 


    Terminology:
            
    delta:  distance between minor planet and earth in AU
    radius: distance between minor planet and sun in AU
    magn:   magnitude (brightness) estimate    
    ra:     right ascension in hours (24h = 360deg)
    dec:    declination in degrees
    elong:  elongation in degrees (angle sun-earth-minor planet)    
    phase:  phase angle in degrees (angle sun-minor planet-earth)        
    AU:     Astronomical Unit (mean distance between earth and sun: 149597870.7 km
    

Orbital elements provided by the MPC (Minor Planet Center).
Calculations by a modified version of AAPlus, a C# implementation of the AA+ project by PJ Naughter from the algorithms presented in the book "Astronomical Algorithms" by Jean Meeus.
NGC2000 dso catalog and star labels from VizieR as provided by the Strasbourg astronomical Data Center.
Tycho2 catalog from the ESO archive.